|
|
Asteroid 2009 JL2
(Preview)
Orbital elements: 2009 JL2 Earth MOID = 0.0009 AU Epoch 2009 June 18.0 TT = JDT 2455000.5 MPC M 5.78138 (2000.0) P Q n 0.39700374 Peri. 204.76791 -0.22719629 +0.94293360 a 1.8334665 Node 53.03458 -0.83500950 -0.05998912 e 0.4655242 Incl. 17.73823 -0.50113968 -0.32753249 P 2.48 H 26.1 G 0.15 U 6 [ur...
|
Blobrana
|
3
|
|
|
|
|
Asteroid (163693) Atira
(Preview)
[url=http://web.mit.edu/newsoffice/2009/atira-0512.html]Re...
|
Blobrana
|
0
|
|
|
|
|
Asteroid 2009 HB
(Preview)
Orbital elements: 2009 HB Earth MOID = 0.1304 AU Epoch 2009 June 18.0 TT = JDT 2455000.5 MPC M 332.02957 (2000.0) P Q n 0.29121641 Peri. 108.44325 +0.71209541 +0.69756219 a 2.2541985 Node 207.49938 -0.69146038 +0.67717254 e 0.5507308 Incl. 9.91975 -0.12166621 +0.23418869 P 3.38 H 18.0 G 0.15 U 9 MP...
|
Blobrana
|
1
|
|
|
|
|
Asteroid 2009 HG
(Preview)
Orbital elements: 2009 HG Earth MOID = 0.0485 AU Epoch 2009 June 18.0 TT = JDT 2455000.5 MPC M 23.91747 (2000.0) P Q n 0.61277359 Peri. 359.72375 -0.64459958 +0.76280837 a 1.3727855 Node 230.13998 -0.70130590 -0.61660776 e 0.2289022 Incl. 3.81962 -0.30440339 -0.19472612 P 1.61 H 23.9 G 0.15 U 9 [ur...
|
Blobrana
|
1
|
|
|
|
|
Asteroid 2009 CR4
(Preview)
Asteroid 2009 CR4 = SW40fq (NEOCPO) Orbital elements: 2009 CR4 Earth MOID = 0.0800 AU Epoch 2008 Nov. 30.0 TT = JDT 2454800.5 MPC M 290.52690 (2000.0) P Q n 0.47335020 Peri. 243.84269 -0.87432227 +0.48297082 a 1.6306009 Node 324.97904 -0.41011053 -0.78801600 e 0.3626513 Incl. 4.79348 -0.2595571...
|
Blobrana
|
2
|
|
|
|
|
Asteroid 2005 NB56
(Preview)
Orbital elements: 2005 NB56 Epoch 2005 July 9.0 TT = JDT 2453560.5 MPC M 24.38765 (2000.0) P Q n 0.49130787 Peri. 113.36614 -0.69269736 +0.71309228 a 1.5906217 Node 112.32647 -0.69700657 -0.62339062 e 0.4554590 Incl. 6.70638 -0.18534348 -0.32075465 P 2.01 H 22.9 G 0.15 From 11 observations 2005...
|
Blobrana
|
1
|
|
|
|
|
Asteroid 2009 JM1
(Preview)
Orbital elements: 2009 JM1 Earth MOID = 0.0182 AU Epoch 2009 June 18.0 TT = JDT 2455000.5 MPC M 109.51948 (2000.0) P Q n 0.93622813 Peri. 242.50098 -0.22024338 -0.94706651 a 1.0348600 Node 222.40708 +0.97161143 -0.19178692 e 0.4529911 Incl. 20.26423 +0.08639496 -0.25745445 P 1.05 H 23.3 G 0.15 U 8...
|
Blobrana
|
0
|
|
|
|
|
Asteroid 2009 JE1
(Preview)
Orbital elements: 2009 JE1 Earth MOID = 0.0101 AU Epoch 2009 June 18.0 TT = JDT 2455000.5 MPC M 359.09419 (2000.0) P Q n 0.58848908 Peri. 233.12342 +0.15117350 +0.98231366 a 1.4102966 Node 45.96768 -0.85099983 +0.18619440 e 0.3464025 Incl. 8.83984 -0.50293723 -0.01978699 P 1.67 H 26.8 G 0.15 U 9 [u...
|
Blobrana
|
2
|
|
|
|
|
Asteroid 2009 JF1
(Preview)
Orbital elements: 2009 JF1 Earth MOID = 0.0014 AU Epoch 2009 June 18.0 TT = JDT 2455000.5 MPC M 358.35979 (2000.0) P Q n 0.37867873 Peri. 280.90688 +0.83354061 +0.54706341 a 1.8921495 Node 45.98089 -0.45576902 +0.75973009 e 0.7393213 Incl. 6.14825 -0.31222533 +0.35147093 P 2.60 H 27.1 G 0.15 U 6 [u...
|
Blobrana
|
2
|
|
|
|
|
Asteroid 2009 JG1
(Preview)
Orbital elements: 2009 JG1 Earth MOID = 0.2578 AU Epoch 2009 June 18.0 TT = JDT 2455000.5 MPC M 359.63383 (2000.0) P Q n 0.36348373 Peri. 29.43272 -0.18552558 +0.95450339 a 1.9445214 Node 230.90379 -0.95009455 -0.23488367 e 0.3595817 Incl. 17.50664 -0.25079995 +0.18371971 P 2.71 H 20.7 G 0.15 U 8 [...
|
Blobrana
|
0
|
|
|
|
|
Asteroid 2009 JS
(Preview)
Orbital elements: 2009 JS Earth MOID = 0.0085 AU Epoch 2009 June 18.0 TT = JDT 2455000.5 MPC M 62.08238 (2000.0) P Q n 0.63164655 Peri. 112.46372 -0.91184557 -0.40325038 a 1.3453025 Node 43.85735 +0.32384115 -0.82178638 e 0.3586806 Incl. 6.37942 +0.25231837 -0.40256214 P 1.56 H 25.7 G 0.15 U 8 [url...
|
Blobrana
|
0
|
|
|
|
|
Asteroid 2009 JR
(Preview)
Orbital elements: 2009 JR PHA, Earth MOID = 0.0332 AU Epoch 2009 June 18.0 TT = JDT 2455000.5 MPC M 40.04652 (2000.0) P Q n 0.42953278 Peri. 295.02805 -0.93712081 -0.33284158 a 1.7396899 Node 225.72939 +0.34894472 -0.88796857 e 0.4915428 Incl. 8.43060 +0.00649333 -0.31737723 P 2.29 H 21.2 G 0.15 U...
|
Blobrana
|
0
|
|
|
|
|
Asteroid 2009 HM82
(Preview)
Orbital elements: 2009 HM82 Earth MOID = 0.0696 AU Epoch 2009 June 18.0 TT = JDT 2455000.5 MPC M 348.06090 (2000.0) P Q n 0.68740288 Peri. 80.08323 +0.43418497 +0.87488204 a 1.2715355 Node 218.09060 -0.90066422 +0.41712316 e 0.3017056 Incl. 20.35945 -0.01695200 +0.24614974 P 1.43 H 22.0 G 0.15 U 9...
|
Blobrana
|
1
|
|
|
|
|
Asteroid 2009 HF88
(Preview)
Orbital elements: 2009 HF88 Earth MOID = 0.4773 AU Epoch 2009 June 18.0 TT = JDT 2455000.5 MPC M 38.74527 (2000.0) P Q n 0.22771196 Peri. 283.14702 -0.76429530 -0.57523514 a 2.6559027 Node 222.77743 +0.61682791 -0.78395565 e 0.5268122 Incl. 25.41513 -0.18808516 -0.23349106 P 4.33 H 19.6 G 0.15 U 8...
|
Blobrana
|
0
|
|
|
|
|
Asteroid 2001 GQ2
(Preview)
The 270 - 600 metre wide asteroid 2001 GQ2 will make a close pass (63.0 Lunar Distances, 0.1620 AU), travelling at 15.59 km/s, to the Earth-Moon system on the 3rd May, 2009. See more The Lunar Distance (LD), the distance bet...
|
Blobrana
|
0
|
|
|